sat.trackr.live / text

‹ back to catalog

SHIJIAN-6 03A (SJ-6 03A)

NORAD 33408 · 2008-053A

PAYLOAD ACTIVE UNKNOWN

§ Identity

Operator
Country
PRC
Launch date
2008-10-25
Launch site
TAISC
Launch vehicle
Mass (kg)
RCS (m²)
1.30

External: N2YO · Heavens-Above · Gunter

§ Orbital elements

Epoch: 2026-09-20T04:41:27.168576Z

Period
94.87 min
Inclination
97.8348°
Eccentricity
0.0012262
Mean motion
15.17922397 rev/d
Perigee alt
503.7 km
Apogee alt
520.6 km
Semi-major
6,890.3 km
B*
1.4828e-4
RAAN
299.8395°
Arg perigee
50.3629°
Mean anomaly
309.8684°
Rev number
97,737

§ Raw data

SHIJIAN-6 03A (SJ-6 03A)1 33408U 08053A   26263.19545334  .00002939  00000+0  14828-3 0  99952 33408  97.8348 299.8395 0012262  50.3629 309.8684 15.17922397977379

JSON: /api/v1/satellites/33408 · /tle

For live sub-satellite position, see the globe view (requires WebGL).

§ Visibility from observer

Set your observer location to see the next 7 days of passes ≥ 10°. The values pass through the URL so the page stays shareable.

No JS? Fill the form by hand. The geolocation button needs JavaScript.

§ Radio — SatNOGS DB

ModeDescriptionDownlinkUplink
BPSK Mode S 2.225 GHz

1 transmitter · refreshed weekly from db.satnogs.org